Snowfall_Accumulation
0.0 0.0 0.0 0.0 0.0 0.0 0.0 0.0 0.0 0.0 0.0 0.0 0.0 0.0 0.0 0.0 0.0 0.0 0.0 0.0 0.0 0.0 0.0 0.0 0.0 0.0 0.0 0.0 0.0 0.0 0.0 0.0 0.0 0.0 0.0 0.0 0.0 0.0 0.0 0.0 0.0 0.0 0.0 0.0
0.0 0.0 0.0 0.0 0.0 0.0 0.0 0.0 0.0 0.0 0.0 0.0 0.0 0.0 0.0 0.0 0.0 0.0 0.0 0.0 0.0 0.0 0.0 0.0 0.0 0.0 0.0 0.0 0.0 0.0 0.0 0.0 0.0 0.0 0.0 0.0 0.0 0.0 0.0 0.0 0.0 0.0 0.0 0.0
0.0 0.0 0.0 0.2 0.0 0.0 0.0 0.0 0.0 0.0 0.0 0.0 0.0 0.0 0.0 0.0 0.0 0.0 0.0 0.0 0.0 0.0 0.0 0.0 0.0 0.0 0.0 0.0 0.0 0.0 0.0 0.0 0.0 0.0 0.0 0.0 0.0 0.0 0.0 0.0 0.0 0.0 0.0 0.0
0.3 0.0 2.9 0.0 0.0 0.0 0.0 0.0 0.0 0.0 0.0 0.0 0.0 0.0 0.0 0.0 0.0 0.0 0.0 0.0 0.0 0.0 0.0 0.0 0.0 0.0 0.0 0.0 0.0 0.0 0.0 0.0 0.0 0.0 0.0 0.0 0.0 0.0 0.0 0.0 0.0 0.0 0.0 0.0
1.1 0.1 0.0 0.0 0.0 0.0 0.0 0.0 0.0 0.0 0.0 0.0 0.0 0.0 0.0 0.0 0.0 0.0 0.0 0.0 0.0 0.0 0.0 0.0 0.0 0.0 0.0 0.0 0.0 0.0 0.0 0.0 0.0 0.0 0.0 0.0 0.0 0.0 0.0 0.0 0.0 0.0 0.0 0.0
0.2 0.0 0.3 0.0 0.0 0.0 0.0 0.0 0.0 0.0 0.0 0.0 0.0 0.0 0.0 0.0 0.0 0.0 0.0 0.0 0.0 0.0 0.0 0.0 0.0 0.0 0.0 0.0 0.0 0.0 0.0 0.0 0.0 0.0 0.0 0.0 0.0 0.0 0.0 0.0 0.0 0.0 0.0 0.0
0.2 0.1 0.0 0.0 0.0 0.0 0.0 0.0 0.0 0.0 0.0 0.0 0.0 0.0 0.0 0.0 0.0 0.0 0.0 0.0 0.0 0.0 0.0 0.0 0.0 0.0 0.0 0.0 0.0 0.0 0.0 0.0 0.0 0.0 0.0 0.0 0.0 0.0 0.0 0.0 0.0 0.0 0.0 0.0
0.3 0.6 2.0 0.0 0.0 0.0 0.0 0.0 0.0 0.0 0.0 0.0 0.0 0.0 0.0 0.0 0.0 0.0 0.0 0.0 0.0 0.0 0.0 0.0 0.0 0.0 0.0 0.0 0.0 0.0 0.0 0.0 0.0 0.0 0.0 0.0 0.0 0.0 0.0 0.0 0.0 0.0 0.0 0.0
0.0 0.1 0.0 0.0 0.0 0.0 0.0 0.0 0.0 0.0 0.0 0.0 0.0 0.0 0.0 0.0 0.0 0.0 0.0 0.0 0.0 0.0 0.0 0.0 0.0 0.0 0.0 0.0 0.0 0.0 0.0 0.0 0.0 0.0 0.0 0.0 0.0 0.0 0.0 0.0 0.0 0.0 0.0 0.0
0.0 0.0 0.0 0.0 0.0 0.0 0.0 0.0 0.0 0.0 0.0 0.0 0.0 0.0 0.0 0.0 0.0 0.0 0.0 0.0 0.0 0.0 0.0 0.0 0.0 0.0 0.0 0.0 0.0 0.0 0.0 0.0 0.0 0.0 0.0 0.0 0.0 0.0 0.0 0.0 0.0 0.0 0.1 0.2
0.0 0.0 0.0 0.0 0.0 0.0 0.0 0.0 0.0 0.0 0.0 0.0 0.0 0.0 0.0 0.0 0.0 0.0 0.0 0.0 0.0 0.0 0.0 0.0 0.0 0.0 0.0 0.0 0.0 0.0 0.0 0.0 0.0 0.0 0.0 0.0 0.0 0.0 0.0 0.0 0.0 0.1 0.1 0.3
0.0 0.0 0.0 0.0 0.0 0.0 0.0 0.0 0.0 0.0 0.0 0.0 0.0 0.0 0.0 0.0 0.0 0.0 0.0 0.0 0.0 0.0 0.0 0.0 0.0 0.0 0.0 0.0 0.0 0.0 0.0 0.0 0.0 0.0 0.0 0.0 0.0 0.0 nan nan nan nan nan 0.2
0.0 0.0 0.0 0.0 0.0 0.0 0.0 0.0 0.0 0.0 0.0 0.0 0.0 0.0 0.0 0.0 0.0 nan 0.0 0.0 0.0 0.0 0.0 0.0 0.0 0.0 0.0 0.0 0.0 0.0 0.0 0.0 0.0 0.0 0.0 0.0 0.0 0.0 0.1 0.1 nan nan nan nan
0.0 0.0 0.0 0.0 0.0 0.0 0.0 0.0 0.0 0.0 0.0 0.0 0.0 0.0 0.0 0.0 0.0 0.0 0.0 0.0 0.0 0.0 0.0 0.0 0.0 0.0 0.0 0.0 0.0 0.0 0.0 0.0 0.0 0.0 0.0 0.0 0.0 0.0 0.0 0.2 0.3 0.2 nan nan
0.0 0.0 0.0 0.0 0.0 0.0 0.0 0.0 0.0 0.0 0.0 0.0 0.0 0.0 0.0 0.0 0.0 0.0 0.0 0.0 0.0 0.0 0.0 0.0 0.0 0.0 0.0 0.0 0.0 0.0 0.0 0.0 0.0 0.0 0.0 0.0 0.0 0.0 0.0 0.1 0.1 0.1 0.1 0.2
0.0 0.0 0.0 0.0 0.0 0.0 0.0 0.0 0.0 0.0 0.0 0.0 0.0 0.0 0.0 0.0 0.0 0.0 0.0 0.0 0.0 0.0 0.0 0.1 0.1 0.0 0.0 0.0 0.0 0.0 0.0 0.0 0.0 0.0 0.0 0.0 0.0 0.1 0.1 0.1 0.2 0.3 0.3 0.3
0.0 0.0 0.0 0.0 0.0 0.0 0.0 0.0 0.0 0.0 0.0 0.0 0.0 0.0 0.0 0.0 0.0 0.0 0.0 0.0 0.0 0.0 0.0 0.0 0.0 0.0 0.0 0.0 0.0 0.0 0.0 0.0 0.0 0.0 0.0 0.0 0.0 0.1 0.2 0.4 0.3 0.3 0.4 0.5
0.0 0.0 0.0 0.0 0.0 0.0 0.0 0.0 0.0 0.0 0.0 0.0 0.0 0.0 0.2 0.2 0.0 0.0 0.0 0.0 0.0 0.1 0.0 0.0 0.0 0.0 0.0 0.0 0.0 0.0 0.0 0.0 0.0 0.0 0.0 0.2 0.2 0.2 0.3 0.4 0.6 0.7 1.0 1.0
0.0 0.0 0.0 0.0 0.0 0.0 0.0 0.0 0.0 0.0 0.0 0.0 0.0 0.0 0.0 0.1 0.0 0.0 0.0 0.9 1.3 0.0 0.0 0.0 0.0 0.0 0.0 0.0 0.0 0.0 0.0 0.1 0.2 0.2 0.2 0.0 0.2 0.1 0.3 0.5 0.7 0.9 0.8 1.3
0.0 0.0 0.0 0.0 0.0 0.0 0.0 0.0 0.0 0.0 0.0 0.0 0.1 0.9 0.3 1.8 1.0 1.2 0.0 0.0 0.0 0.2 0.0 0.0 0.0 0.0 0.0 0.0 0.0 0.0 0.1 0.2 0.2 0.1 0.2 0.1 0.2 0.4 0.5 0.3 0.9 1.0 1.4 1.6
0.0 0.0 0.0 0.0 0.0 0.0 0.0 0.0 0.0 0.0 0.0 0.2 0.5 1.7 2.0 1.0 1.9 2.8 0.6 0.3 0.0 0.0 0.0 0.0 0.0 0.1 0.0 0.1 0.0 0.1 0.2 0.3 0.3 0.3 0.4 0.6 0.9 1.1 1.5 1.2 1.2 1.7 3.1 2.6
0.0 0.0 0.1 0.1 0.0 0.0 0.0 0.0 0.0 0.5 0.5 2.2 4.4 5.5 4.5 0.9 1.9 1.5 1.5 0.3 0.3 0.0 0.1 0.1 0.1 0.0 0.1 0.1 0.1 0.3 0.2 0.3 0.4 0.5 0.8 1.2 1.3 3.0 3.2 2.8 3.5 4.3 4.4 4.6
0.0 0.0 0.1 1.6 1.3 0.1 0.7 0.9 2.7 1.6 4.4 3.6 4.2 1.6 0.4 0.3 0.3 1.8 3.5 0.1 0.3 0.2 0.3 0.4 0.4 0.7 1.5 0.7 0.6 0.9 1.4 1.6 1.5 1.3 1.3 2.4 2.1 5.5 2.6 3.1 4.0 4.3 7.5 5.1
0.0 0.0 0.0 0.1 0.7 0.2 0.9 0.0 0.0 0.0 3.7 1.2 2.1 3.9 0.1 1.8 1.6 0.5 0.7 2.8 3.2 6.5 3.4 1.1 2.9 3.2 2.8 2.2 2.6 3.1 2.3 2.5 2.4 2.6 1.3 4.2 5.2 4.1 3.1 5.8 4.5 4.3 5.3 5.5
0.0 0.0 0.1 0.1 0.0 0.2 0.0 0.0 0.1 0.1 0.0 0.1 0.0 0.1 0.0 0.3 3.4 2.2 3.1 4.3 6.4 4.3 4.9 4.5 4.3 6.0 5.3 5.0 4.5 4.7 4.4 2.7 3.2 4.3 3.3 6.1 5.7 9.2 6.6 5.0 6.8 7.1 7.5 6.0
0.0 0.1 0.1 0.0 0.1 0.1 0.1 0.2 0.2 0.3 0.3 1.0 0.6 1.5 1.1 1.6 1.6 2.8 4.1 6.0 5.6 7.0 6.4 10.1 11.1 9.8 8.6 6.1 6.1 6.8 4.3 3.5 4.3 4.1 5.2 5.7 5.2 4.6 5.8 5.5 7.8 9.6 11.7 12.4
0.1 0.0 0.2 0.1 0.1 0.1 0.1 0.2 0.5 0.9 0.6 1.9 3.5 2.3 2.0 2.8 3.8 3.8 6.5 8.3 9.1 11.3 11.9 12.9 10.8 8.9 8.1 9.8 9.3 8.0 7.3 6.7 7.1 5.6 7.5 9.2 8.6 11.1 10.4 10.2 11.9 13.0 11.7 10.6
Water_Equivalent
0.00 0.00 0.00 0.00 0.00 0.00 0.00 0.00 0.01 0.00 0.00 0.00 0.00 0.00 0.00 0.00 0.00 0.00 0.00 0.00 0.00 0.00 0.00 0.00 0.00 0.00 0.00 0.00 0.00 0.00 0.00 0.00 0.00 0.00 0.00 0.00 0.00 0.00 0.00 0.00 0.00 0.00 0.00 0.00
0.00 0.00 0.00 0.00 0.00 0.00 0.00 0.00 0.00 0.00 0.00 0.00 0.00 0.00 0.00 0.00 0.00 0.00 0.00 0.00 0.00 0.00 0.00 0.00 0.00 0.00 0.00 0.00 0.00 0.00 0.00 0.00 0.00 0.00 0.00 0.00 0.00 0.00 0.00 0.00 0.00 0.00 0.00 0.00
0.00 0.00 0.00 0.08 0.00 0.00 0.00 0.00 0.00 0.00 0.00 0.00 0.00 0.00 0.00 0.00 0.00 0.00 0.00 0.00 0.00 0.00 0.00 0.00 0.00 0.00 0.00 0.00 0.00 0.00 0.00 0.00 0.00 0.00 0.00 0.00 0.00 0.00 0.00 0.00 0.00 0.00 0.00 0.00
0.10 0.01 0.79 0.00 0.00 0.00 0.00 0.00 0.00 0.00 0.00 0.00 0.00 0.00 0.00 0.00 0.00 0.00 0.00 0.00 0.00 0.00 0.00 0.00 0.00 0.00 0.00 0.00 0.00 0.00 0.00 0.00 0.00 0.00 0.00 0.00 0.00 0.00 0.00 0.00 0.00 0.00 0.00 0.00
0.36 0.04 0.00 0.00 0.00 0.00 0.00 0.00 0.00 0.00 0.00 0.00 0.00 0.00 0.00 0.00 0.00 0.00 0.00 0.00 0.00 0.00 0.00 0.00 0.00 0.00 0.00 0.00 0.00 0.00 0.00 0.00 0.00 0.00 0.00 0.00 0.00 0.00 0.00 0.00 0.00 0.00 0.00 0.00
0.08 0.01 0.08 0.00 0.00 0.00 0.00 0.00 0.00 0.00 0.00 0.00 0.00 0.00 0.00 0.00 0.00 0.00 0.00 0.00 0.00 0.00 0.00 0.00 0.00 0.00 0.00 0.00 0.00 0.00 0.00 0.00 0.00 0.00 0.00 0.00 0.00 0.00 0.00 0.00 0.00 0.00 0.00 0.00
0.09 0.05 0.01 0.00 0.00 0.00 0.02 0.00 0.00 0.00 0.00 0.00 0.00 0.00 0.00 0.00 0.00 0.00 0.00 0.00 0.00 0.00 0.00 0.00 0.00 0.00 0.00 0.00 0.00 0.00 0.00 0.00 0.00 0.00 0.00 0.00 0.00 0.00 0.00 0.00 0.00 0.00 0.00 0.00
0.11 0.20 0.54 0.00 0.00 0.00 0.00 0.00 0.00 0.00 0.00 0.00 0.00 0.00 0.00 0.00 0.00 0.00 0.00 0.00 0.00 0.00 0.00 0.00 0.00 0.00 0.00 0.00 0.00 0.00 0.00 0.00 0.00 0.00 0.00 0.00 0.00 0.00 0.00 0.00 0.00 0.00 0.00 0.00
0.01 0.02 0.00 0.00 0.00 0.00 0.00 0.00 0.00 0.00 0.00 0.00 0.00 0.00 0.00 0.00 0.00 0.00 0.00 0.00 0.00 0.00 0.00 0.00 0.00 0.00 0.00 0.00 0.00 0.00 0.00 0.00 0.00 0.00 0.00 0.00 0.00 0.00 0.00 0.00 0.00 0.00 0.00 0.00
0.00 0.00 0.00 0.00 0.00 0.00 0.00 0.00 0.00 0.00 0.00 0.00 0.00 0.00 0.00 0.00 0.00 0.00 0.00 0.00 0.00 0.00 0.00 0.00 0.00 0.00 0.00 0.00 0.00 0.00 0.00 0.00 0.00 0.00 0.00 0.00 0.00 0.00 0.00 0.00 0.00 0.00 0.02 0.06
0.00 0.00 0.00 0.00 0.00 0.00 0.00 0.00 0.00 0.00 0.00 0.00 0.00 0.00 0.00 0.00 0.00 0.00 0.00 0.00 0.00 0.00 0.00 0.00 0.00 0.00 0.00 0.00 0.00 0.00 0.00 0.00 0.00 0.00 0.00 0.00 0.00 0.00 0.00 0.00 0.01 0.04 0.05 0.09
0.01 0.00 0.00 0.00 0.00 0.00 0.00 0.00 0.00 0.00 0.00 0.00 0.00 0.00 0.00 0.00 0.00 0.00 0.00 0.00 0.00 0.00 0.00 0.00 0.00 0.00 0.00 0.00 0.00 0.00 0.00 0.00 0.00 0.00 0.00 0.00 0.00 0.00 nan nan nan nan nan 0.06
0.00 0.00 0.00 0.00 0.00 0.00 0.00 0.00 0.00 0.00 0.00 0.00 0.00 0.00 0.00 0.00 0.00 nan 0.00 0.00 0.00 0.00 0.00 0.00 0.00 0.00 0.00 0.00 0.00 0.00 0.00 0.00 0.00 0.00 0.00 0.00 0.00 0.00 0.04 0.04 nan nan nan nan
0.00 0.00 0.00 0.00 0.00 0.00 0.00 0.00 0.00 0.00 0.00 0.00 0.00 0.00 0.00 0.00 0.00 0.00 0.00 0.00 0.00 0.00 0.00 0.00 0.00 0.00 0.00 0.00 0.00 0.00 0.00 0.00 0.00 0.00 0.00 0.00 0.00 0.00 0.01 0.06 0.08 0.07 nan nan
0.00 0.00 0.00 0.00 0.00 0.00 0.00 0.00 0.00 0.00 0.00 0.00 0.00 0.00 0.00 0.00 0.00 0.00 0.00 0.00 0.00 0.00 0.00 0.00 0.00 0.00 0.00 0.00 0.00 0.00 0.00 0.00 0.00 0.00 0.00 0.00 0.00 0.00 0.01 0.03 0.03 0.04 0.05 0.06
0.00 0.00 0.00 0.00 0.00 0.00 0.00 0.00 0.00 0.00 0.00 0.00 0.00 0.00 0.00 0.00 0.00 0.00 0.00 0.00 0.00 0.00 0.00 0.04 0.05 0.00 0.00 0.00 0.00 0.00 0.00 0.00 0.00 0.00 0.00 0.00 0.00 0.02 0.02 0.03 0.05 0.08 0.07 0.07
0.00 0.00 0.00 0.00 0.00 0.00 0.00 0.00 0.00 0.00 0.00 0.00 0.00 0.00 0.00 0.00 0.00 0.00 0.00 0.00 0.00 0.00 0.00 0.00 0.00 0.00 0.00 0.00 0.00 0.00 0.00 0.00 0.00 0.00 0.00 0.00 0.01 0.04 0.07 0.11 0.08 0.06 0.08 0.11
0.00 0.00 0.00 0.00 0.00 0.00 0.00 0.00 0.00 0.00 0.00 0.00 0.00 0.00 0.08 0.07 0.00 0.00 0.00 0.00 0.02 0.03 0.00 0.00 0.00 0.00 0.00 0.00 0.00 0.00 0.00 0.00 0.00 0.00 0.00 0.05 0.09 0.07 0.06 0.08 0.11 0.13 0.17 0.17
0.00 0.00 0.00 0.00 0.00 0.00 0.00 0.00 0.00 0.00 0.00 0.00 0.00 0.00 0.00 0.04 0.00 0.00 0.00 0.36 0.46 0.00 0.00 0.00 0.00 0.00 0.00 0.00 0.00 0.00 0.01 0.05 0.07 0.08 0.07 0.01 0.05 0.03 0.06 0.10 0.13 0.16 0.15 0.22
0.00 0.00 0.00 0.00 0.00 0.00 0.00 0.00 0.00 0.00 0.00 0.00 0.03 0.36 0.10 0.63 0.37 0.44 0.01 0.01 0.01 0.07 0.00 0.00 0.00 0.00 0.00 0.00 0.00 0.01 0.04 0.07 0.06 0.05 0.06 0.05 0.08 0.13 0.12 0.08 0.17 0.20 0.29 0.31
0.00 0.00 0.00 0.00 0.00 0.00 0.00 0.00 0.00 0.00 0.00 0.08 0.21 0.60 0.71 0.37 0.71 1.09 0.21 0.14 0.00 0.00 0.00 0.00 0.00 0.02 0.00 0.03 0.01 0.04 0.08 0.13 0.12 0.10 0.12 0.20 0.32 0.25 0.33 0.29 0.26 0.37 0.74 0.54
0.00 0.00 0.04 0.03 0.00 0.01 0.01 0.00 0.00 0.19 0.17 0.80 1.59 1.94 1.48 0.28 0.71 0.57 0.56 0.11 0.11 0.00 0.06 0.05 0.04 0.01 0.03 0.03 0.04 0.11 0.10 0.11 0.13 0.17 0.24 0.35 0.37 0.95 0.97 0.76 0.88 1.12 1.12 1.21
0.00 0.00 0.03 0.58 0.48 0.03 0.24 0.32 0.98 0.58 1.49 1.25 1.42 0.56 0.14 0.14 0.12 0.55 0.99 0.04 0.13 0.08 0.12 0.15 0.13 0.22 0.51 0.27 0.22 0.34 0.56 0.64 0.56 0.40 0.39 0.81 0.64 1.86 0.64 0.76 1.01 1.02 2.07 1.21
0.00 0.00 0.02 0.02 0.24 0.06 0.26 0.01 0.01 0.01 1.23 0.41 0.74 1.40 0.05 0.66 0.64 0.20 0.28 0.94 1.04 2.50 1.34 0.44 1.06 1.06 0.93 0.87 1.04 1.25 0.89 0.95 0.86 0.91 0.37 1.37 1.83 1.22 0.81 1.72 1.02 1.06 1.33 1.29
0.00 0.01 0.02 0.02 0.00 0.09 0.00 0.00 0.04 0.04 0.02 0.02 0.01 0.02 0.02 0.14 1.04 0.70 0.91 1.22 2.05 1.28 1.42 1.44 1.40 1.97 2.04 1.95 1.73 1.74 1.58 0.92 1.10 1.43 0.92 1.85 1.60 2.84 1.98 1.30 1.79 1.91 1.96 1.53
0.00 0.05 0.04 0.00 0.03 0.05 0.06 0.06 0.08 0.10 0.10 0.35 0.19 0.60 0.37 0.45 0.45 0.65 0.96 1.75 1.30 2.13 1.40 2.75 3.41 3.22 2.75 1.82 1.94 2.10 1.24 0.86 1.09 1.04 1.37 1.42 1.25 1.00 1.34 1.20 1.92 2.59 3.33 3.73
0.05 0.02 0.06 0.06 0.05 0.03 0.02 0.07 0.15 0.28 0.20 0.64 1.05 0.71 0.59 0.81 1.14 1.05 1.99 2.05 2.18 2.74 2.85 3.30 2.64 2.62 1.72 2.34 2.06 1.79 1.61 1.47 2.17 1.12 1.82 2.29 2.14 3.05 2.65 2.63 3.20 3.66 3.10 2.60
SL_Ratio
nan nan nan nan nan nan nan nan 2.8 nan nan nan nan nan nan nan nan nan nan nan nan nan nan nan nan nan nan nan nan nan nan nan nan nan nan nan nan nan nan nan nan nan nan nan
nan nan nan nan nan nan nan nan nan nan nan nan nan nan nan nan nan nan nan nan nan nan nan nan nan nan nan nan nan nan nan nan nan nan nan nan nan nan nan nan nan nan nan nan
nan nan nan 3.2 nan nan nan nan nan nan nan nan nan nan nan nan nan nan nan nan nan nan nan nan nan nan nan nan nan nan nan nan nan nan nan nan nan nan nan nan nan nan nan nan
2.8 2.8 3.7 2.5 nan nan nan nan nan nan nan nan nan nan nan nan nan nan nan nan nan nan nan nan nan nan nan nan nan nan nan nan nan nan nan nan nan nan nan nan nan nan nan nan
3.1 2.7 nan nan nan nan nan nan nan nan nan nan nan nan nan nan nan nan nan nan nan nan nan nan nan nan nan nan nan nan nan nan nan nan nan nan nan nan nan nan nan nan nan nan
2.5 3.0 3.1 nan nan nan nan 0.0 nan nan nan nan nan nan nan nan nan nan nan nan nan nan nan nan nan nan nan nan nan nan nan nan nan nan nan nan nan nan nan nan nan nan nan nan
2.6 2.7 2.4 nan nan nan 3.0 2.5 nan nan nan nan nan nan nan nan nan nan nan nan nan nan nan nan nan nan nan nan nan nan nan nan nan nan nan nan nan nan nan nan nan nan nan nan
3.0 3.1 3.7 nan nan nan nan nan nan nan nan nan nan nan nan nan nan nan nan nan nan nan nan nan nan nan nan nan nan nan nan nan nan nan nan nan nan nan nan nan nan nan nan nan
2.5 2.6 nan nan nan nan nan nan nan nan nan nan nan nan nan nan nan nan nan nan nan nan nan nan nan nan nan nan nan nan nan nan nan nan nan nan nan nan nan nan nan nan nan nan
2.5 nan nan nan nan nan nan nan nan nan nan nan nan nan nan nan nan nan nan nan nan nan nan nan nan nan nan nan nan nan nan nan nan nan nan nan nan nan nan nan nan 1.7 2.6 2.9
nan nan nan nan nan nan nan nan nan nan nan nan nan nan nan nan nan nan nan nan nan nan nan nan nan nan nan nan nan nan nan nan nan nan nan nan nan nan nan nan 2.5 2.7 2.7 3.5
5.5 nan nan nan nan nan nan nan nan nan nan nan nan nan nan nan nan nan nan nan nan nan nan nan nan nan nan nan nan nan nan nan nan nan nan nan nan nan nan nan nan nan nan 2.9
nan nan nan nan nan nan nan nan nan nan nan nan nan nan nan nan nan nan nan nan nan nan nan nan nan nan nan nan nan nan nan nan nan nan nan nan nan nan 2.6 2.5 nan nan nan nan
nan nan nan nan nan nan nan nan nan nan nan nan nan nan nan nan nan nan nan nan nan nan nan nan nan nan nan nan nan nan nan nan nan nan nan nan nan nan 2.7 3.0 3.0 2.5 nan nan
nan nan nan nan nan nan nan nan nan nan nan nan nan nan nan nan nan nan nan nan nan nan nan nan nan nan nan nan nan nan nan nan nan nan nan nan nan 2.5 2.8 2.8 2.6 2.5 2.7 3.8
nan nan nan nan nan nan nan nan nan nan nan nan nan nan nan nan nan nan nan nan nan 1.7 nan 2.5 2.5 nan nan nan nan nan nan nan nan nan nan nan nan 2.8 2.9 2.8 3.2 3.3 4.0 4.4
nan nan nan nan nan nan nan nan nan nan nan nan nan nan nan nan nan nan nan nan nan nan nan nan nan nan nan nan nan nan nan nan nan nan nan nan 2.8 3.2 3.3 3.2 3.8 4.9 5.0 4.8
nan nan nan nan nan nan nan nan nan nan nan nan nan nan 2.5 2.9 nan 3.3 nan nan 2.5 2.6 nan nan nan nan nan nan nan nan nan nan nan 2.5 2.5 2.8 2.7 3.1 4.3 5.1 5.7 5.8 6.0 6.1
nan nan nan nan nan nan nan nan nan nan nan nan 2.5 nan nan 2.6 nan nan nan 2.6 2.7 nan 2.5 nan nan nan nan nan nan nan 2.6 2.6 2.9 2.9 2.9 3.2 3.3 4.3 4.5 5.0 5.3 5.4 5.7 5.8
nan nan nan nan nan nan nan nan nan nan nan nan 2.5 2.6 2.8 2.8 2.7 2.7 2.5 2.5 2.6 2.8 nan nan nan nan nan nan nan 2.8 2.5 2.7 2.9 2.7 2.8 2.9 3.0 3.3 4.2 3.4 4.9 5.3 4.8 5.2
nan nan nan nan nan nan nan nan nan nan nan 2.6 2.6 2.8 2.9 2.8 2.7 2.6 2.7 2.6 nan nan nan nan 2.5 2.9 3.0 2.7 2.5 2.5 2.5 2.5 2.5 2.8 3.1 3.1 3.0 4.3 4.4 4.3 4.7 4.5 4.2 4.8
nan 2.5 2.5 2.6 2.0 2.5 2.2 nan nan 2.8 2.9 2.8 2.8 2.8 3.0 3.3 2.7 2.7 2.6 2.7 2.6 nan 2.5 2.5 2.7 3.0 2.8 3.0 2.5 2.5 2.5 2.6 2.6 3.1 3.5 3.4 3.6 3.2 3.3 3.7 3.9 3.8 4.0 3.8
nan nan 2.5 2.8 2.7 2.6 2.7 2.8 2.7 2.8 2.9 2.9 3.0 2.9 2.7 2.5 2.5 3.2 3.5 2.5 2.6 2.7 2.6 2.5 3.0 3.0 3.0 2.5 2.5 2.5 2.5 2.5 2.7 3.2 3.4 3.0 3.3 3.0 4.1 4.1 4.0 4.3 3.6 4.2
nan nan 2.5 2.5 3.0 3.1 3.4 2.5 2.5 2.8 3.0 3.0 2.9 2.8 2.6 2.8 2.5 2.5 2.5 3.0 3.0 2.6 2.5 2.5 2.7 3.0 3.0 2.5 2.5 2.5 2.6 2.7 2.8 2.9 3.6 3.0 2.8 3.4 3.8 3.4 4.5 4.1 4.0 4.3
2.5 2.6 2.6 2.7 1.7 2.6 nan 2.5 2.8 2.8 2.7 2.5 2.8 2.6 2.9 2.6 3.2 3.2 3.4 3.5 3.1 3.4 3.4 3.1 3.0 3.0 2.6 2.6 2.6 2.7 2.8 2.9 3.0 3.0 3.6 3.3 3.6 3.2 3.4 3.8 3.8 3.7 3.8 3.9
nan 2.5 2.5 nan 2.5 2.5 2.6 2.5 2.8 2.6 2.6 2.9 3.0 2.6 2.8 3.5 3.5 4.3 4.3 3.4 4.3 3.3 4.6 3.7 3.2 3.0 3.1 3.3 3.2 3.3 3.5 4.1 4.0 4.0 3.8 4.0 4.2 4.6 4.4 4.6 4.1 3.7 3.5 3.3
2.5 2.5 2.5 2.5 2.5 2.5 2.6 2.8 3.1 3.2 3.0 2.9 3.3 3.2 3.4 3.5 3.4 3.6 3.2 4.1 4.2 4.1 4.2 3.9 4.1 3.4 4.7 4.2 4.5 4.5 4.5 4.5 3.3 5.0 4.1 4.0 4.0 3.7 3.9 3.9 3.7 3.5 3.8 4.1